Showing default

CENTISPACE-1 S12, 62581

Orbit data source: Space-Track

CENTISPACE-1 S12, 62581 is a payload satellite owned by Centispace (CN) in LEO that was launched on Mon, 13 Jan 2025 UTC via a JIELONG-3 launch vehicle from the Yellow Sea Launch Area, China (YSLA). Payload-class satellites include a variety of spacecraft equipped with specific instruments for various scientific and technological missions. These include communications satellites like Starlink; space stations such as the ISS; scientific satellites like the Hubble; Earth observation satellites from companies like Planet Labs, Umbra, and HawkEye 360; GPS; miniature CubeSats for education and research; and military/defense satellites.

Loading next visibility...
Identifier
62581, 2025-007G
Orbit
LEO
Country
Flag of CNCN / PRC
Related business
Manufacturer
DFH Shenzhen
Mission
Operational Commercial Nav/Com
Bus & Motor
WK01, Unknown motor
Mass
140 kg wet, 140 kg dry
Launch date (UTC)
2025-01-13 (10 months ago)
Launch vehicle
JIELONG-3
Launch site
Yellow Sea Launch Area, China (YSLA)
Object type
Payload
Rocket body
Debris
Shape & HBR
Box + 2 Pan, 1.0 m
Radar Cross Section
0.833 m², Medium (>0.1 m² and < 1m²)

Expand to show TLE details & history
Last TLE update: 1 day ago

TLE from 1 day ago
0 CENTISPACE-1 S12
1 62581U 25007G   25308.47842605  .00000111  00000-0  89301-4 0  9998
2 62581  54.9818  19.3033 0032104  72.5147 287.9340 14.38172646 43332
Epoch: 2025-11-04T11:28Z
TLE epoch observation values (Epoch: 2025-11-04T11:28:56.010Z)
Latitude
-0.00006°
Longitude
163.10501°
Altitude
758.598 km
Speed
7.48 km/s
True Right ascension
01h 17m 12s
True Declination
0° 00' 00"
Sunlit
Object was in full shadow at epoch
Visualization orbit readout
Latitude
Unknown
Longitude
Unknown
Altitude
Unknown
Speed
Unknown
Apparent Right ascension
Unknown
Apparent Declination
Unknown
Sunlit
N/A
Visualization observer readout
Local Sidereal Time
09:53:05
Azimuth
Unknown
Elevation
Unknown
Doppler factor
Unknown
Orbital elements
Apogee altitude
787.44 km
Perigee altitude
741.579 km
Semi-major axis
7,142.646 km
Eccentricity
0.00321
Inclination
54.9818°
RAAN
19.3033°
Arg. of periapsis
72.5147°
True anomaly
287.58356°
Mean anomaly
287.934°
Eccentric anomaly
287.75882°
Mean motion
3.59546 °/min
Orbital period
100.13 mins
BSTAR
0.000089301
Loading maneuver chart data...
Computing Atmospheric mass density...
Loading historical data...
Loading historical data...
Loading historical data...
Loading historical data...
Loading historical data...
Loading historical data...
Loading historical data...

Documentation

Showing up to 5 results
|